Weather History for KI39 - February, 2014

Change the Weather History Date:

Saturday, February 22, 2014

  Actual Average (KLOZ) Record (KLOZ)
Temperature  
Mean Temperature 50 °F 41 °F  
Max Temperature 62 °F 52 °F 70 °F (1962)
Min Temperature 39 °F 31 °F -5 °F (1963)
Degree Days  
Heating Degree Days 14 24  
Month to date heating degree days 575  
Since 1 July heating degree days 3138  
Cooling Degree Days 0 0  
Month to date cooling degree days 0  
Year to date cooling degree days 0  
Moisture  
Dew Point 18 °F    
Average Humidity 30    
Maximum Humidity 42    
Minimum Humidity 19    
Precipitation  
Precipitation 0.00 in 0.13 in 1.62 in (2003)
Month to date precipitation 2.88  
Year to date precipitation 6.42  
Sea Level Pressure  
Sea Level Pressure 30.04 in    
Wind  
Wind Speed 9 mph (SSW)    
Max Wind Speed 13 mph    
Max Gust Speed 18 mph    
Visibility 10 miles    
Events      
T = Trace of Precipitation, MM = Missing Value Source: NWS Daily Summary

Daily Weather History Graph

Daily Weather History Graph

Search for Another Location

Airport or City:

Trip Planner

Search our weather history database for the weather conditions in past years. The results will help you decide how hot, cold, wet, or windy it might be!

Date:

Astronomy

Feb. 22, 2014 Rise Set
Actual Time 7:18 AM EST 6:23 PM EST
Civil Twilight 6:51 AM EST 6:50 PM EST
Nautical Twilight 6:21 AM EST 7:20 PM EST
Astronomical Twilight 5:50 AM EST 7:51 PM EST
Moon 1:09 AM EST (2/22) 11:37 AM EST (2/22)
Length of Visible Light 11h 58m
Length of Day
11h 05m
Waning Gibbous, 50% of the Moon is Illuminated
Feb 22
Waning Gibbous
Feb 22
Last Quarter
Mar 1
New
Mar 8
First Quarter
Mar 16
Full

Hourly Weather History & Observations

Time (EST) Temp. Windchill Dew Point Humidity Pressure Visibility Wind Dir Wind Speed Gust Speed Precip Events Conditions
12:15 AM 39.2 °F 32.5 °F 17.6 °F 42% 30.05 in 10.0 mi SSW 10.4 mph - N/A   Clear
12:35 AM 39.2 °F 33.0 °F 17.6 °F 42% 30.05 in 10.0 mi SSW 9.2 mph - N/A   Clear
12:55 AM 41.0 °F 35.8 °F 15.8 °F 36% 30.06 in 10.0 mi SSW 8.1 mph - N/A   Clear
1:15 AM 41.0 °F 35.2 °F 15.8 °F 36% 30.06 in 10.0 mi SSW 9.2 mph - N/A   Clear
1:35 AM 39.2 °F 32.5 °F 15.8 °F 39% 30.06 in 10.0 mi South 10.4 mph - N/A   Clear
1:55 AM 39.2 °F 32.5 °F 15.8 °F 39% 30.06 in 10.0 mi South 10.4 mph - N/A   Clear
2:15 AM 39.2 °F 32.5 °F 15.8 °F 39% 30.06 in 10.0 mi South 10.4 mph - N/A   Clear
2:35 AM 41.0 °F 34.3 °F 15.8 °F 36% 30.06 in 10.0 mi South 11.5 mph - N/A   Clear
2:55 AM 39.2 °F 33.0 °F 15.8 °F 39% 30.06 in 10.0 mi SSW 9.2 mph - N/A   Clear
3:15 AM 41.0 °F 35.8 °F 15.8 °F 36% 30.05 in 10.0 mi SSW 8.1 mph - N/A   Clear
3:35 AM 41.0 °F 34.3 °F 14.0 °F 33% 30.05 in 10.0 mi SSW 11.5 mph - N/A   Clear
3:55 AM 41.0 °F 34.7 °F 14.0 °F 33% 30.04 in 10.0 mi SSW 10.4 mph 16.1 mph N/A   Clear
4:15 AM 41.0 °F 34.3 °F 14.0 °F 33% 30.03 in 10.0 mi SSW 11.5 mph 16.1 mph N/A   Clear
4:35 AM 41.0 °F 34.3 °F 15.8 °F 36% 30.04 in 10.0 mi SSW 11.5 mph - N/A   Clear
4:55 AM 41.0 °F 34.3 °F 15.8 °F 36% 30.05 in 10.0 mi SSW 11.5 mph - N/A   Clear
5:15 AM 41.0 °F 34.7 °F 15.8 °F 36% 30.05 in 10.0 mi SSW 10.4 mph - N/A   Clear
5:35 AM 41.0 °F 34.3 °F 15.8 °F 36% 30.05 in 10.0 mi SSW 11.5 mph - N/A   Clear
5:55 AM 41.0 °F 35.2 °F 15.8 °F 36% 30.06 in 10.0 mi SSW 9.2 mph - N/A   Clear
6:15 AM 41.0 °F 35.2 °F 15.8 °F 36% 30.07 in 10.0 mi SSW 9.2 mph - N/A   Clear
6:35 AM 41.0 °F 35.2 °F 15.8 °F 36% 30.08 in 10.0 mi SSW 9.2 mph - N/A   Clear
6:55 AM 41.0 °F 34.7 °F 15.8 °F 36% 30.08 in 10.0 mi SSW 10.4 mph - N/A   Clear
7:15 AM 41.0 °F 34.3 °F 15.8 °F 36% 30.08 in 10.0 mi SSW 11.5 mph - N/A   Clear
7:35 AM 39.2 °F 33.0 °F 17.6 °F 42% 30.09 in 10.0 mi SSW 9.2 mph - N/A   Clear
7:55 AM 39.2 °F 35.9 °F 17.6 °F 42% 30.11 in 10.0 mi West 4.6 mph - N/A   Clear
8:15 AM 41.0 °F 36.4 °F 17.6 °F 39% 30.12 in 10.0 mi SW 6.9 mph - N/A   Clear
8:35 AM 42.8 °F 38.0 °F 17.6 °F 36% 30.12 in 10.0 mi SSW 8.1 mph - N/A   Clear
8:55 AM 42.8 °F 37.0 °F 17.6 °F 36% 30.13 in 10.0 mi SSW 10.4 mph - N/A   Clear
9:15 AM 44.6 °F 40.7 °F 19.4 °F 37% 30.13 in 10.0 mi SW 6.9 mph - N/A   Clear
9:35 AM 46.4 °F 41.5 °F 17.6 °F 32% 30.13 in 10.0 mi SW 10.4 mph - N/A   Clear
9:55 AM 48.2 °F - 19.4 °F 32% 30.13 in 10.0 mi SW 12.7 mph 16.1 mph N/A   Clear
10:15 AM 48.2 °F - 19.4 °F 32% 30.13 in 10.0 mi SW 11.5 mph - N/A   Clear
10:35 AM 50.0 °F - 19.4 °F 30% 30.13 in 10.0 mi SW 11.5 mph - N/A   Clear
10:55 AM 51.8 °F - 21.2 °F 30% 30.13 in 10.0 mi WSW 11.5 mph - N/A   Clear
11:15 AM 53.6 °F - 21.2 °F 28% 30.12 in 10.0 mi SW 9.2 mph - N/A   Clear
11:35 AM 53.6 °F - 21.2 °F 28% 30.12 in 10.0 mi WSW 8.1 mph - N/A   Clear
11:55 AM 55.4 °F - 19.4 °F 25% 30.12 in 10.0 mi West 8.1 mph - N/A   Clear
12:15 PM 55.4 °F - 19.4 °F 25% 30.11 in 10.0 mi West 9.2 mph 17.3 mph N/A   Clear
12:35 PM 57.2 °F - 21.2 °F 25% 30.10 in 10.0 mi West 11.5 mph 18.4 mph N/A   Clear
12:55 PM 57.2 °F - 21.2 °F 25% 30.09 in 10.0 mi West 9.2 mph - N/A   Clear
1:15 PM 57.2 °F - 21.2 °F 25% 30.08 in 10.0 mi WSW 8.1 mph - N/A   Clear
1:20 PM 59.0 °F - 21.2 °F 23% 30.07 in 10.0 mi West 8.1 mph - N/A   Clear
1:35 PM 59.0 °F - 21.2 °F 23% 30.07 in 10.0 mi West 11.5 mph 16.1 mph N/A   Clear
1:55 PM 60.8 °F - 19.4 °F 20% 30.05 in 10.0 mi WSW 10.4 mph 16.1 mph N/A   Clear
2:15 PM 60.8 °F - 19.4 °F 20% 30.04 in 10.0 mi SW 10.4 mph - N/A   Clear
2:35 PM 60.8 °F - 21.2 °F 22% 30.03 in 10.0 mi SW 11.5 mph - N/A   Clear
2:55 PM 62.6 °F - 21.2 °F 20% 30.01 in 10.0 mi South 8.1 mph - N/A   Clear
3:15 PM 62.6 °F - 21.2 °F 20% 30.01 in 10.0 mi SSW 11.5 mph 17.3 mph N/A   Clear
3:35 PM 60.8 °F - 21.2 °F 22% 30.00 in 10.0 mi SSW 6.9 mph - N/A   Clear
3:55 PM 62.6 °F - 19.4 °F 19% 30.00 in 10.0 mi SW 9.2 mph - N/A   Clear
4:15 PM 60.8 °F - 19.4 °F 20% 29.99 in 10.0 mi SSW 10.4 mph 16.1 mph N/A   Clear
4:35 PM 62.6 °F - 19.4 °F 19% 29.99 in 10.0 mi SSW 8.1 mph - N/A   Clear
5:00 PM 60.8 °F - 17.6 °F 19% 29.98 in 10.0 mi SW 10.4 mph 17.3 mph N/A   Clear
5:15 PM 60.8 °F - 17.6 °F 19% 29.98 in 10.0 mi SW 8.1 mph - N/A   Clear
5:35 PM 60.8 °F - 17.6 °F 19% 29.97 in 10.0 mi SW 6.9 mph - N/A   Clear
5:55 PM 59.0 °F - 17.6 °F 20% 29.96 in 10.0 mi SSW 4.6 mph - N/A   Clear
6:15 PM 59.0 °F - 17.6 °F 20% 29.96 in 10.0 mi SW 3.5 mph - N/A   Clear
6:35 PM 57.2 °F - 17.6 °F 21% 29.96 in 10.0 mi SW 3.5 mph - N/A   Clear
6:55 PM 57.2 °F - 17.6 °F 21% 29.96 in 10.0 mi SW 3.5 mph - N/A   Clear
7:15 PM 57.2 °F - 15.8 °F 20% 29.96 in 10.0 mi SSW 3.5 mph - N/A   Clear
7:35 PM 55.4 °F - 15.8 °F 21% 29.96 in 10.0 mi South 3.5 mph - N/A   Clear
7:55 PM 53.6 °F - 17.6 °F 24% 29.96 in 10.0 mi Calm Calm - N/A   Clear
8:15 PM 50.0 °F - 21.2 °F 32% 29.96 in 10.0 mi SSE 3.5 mph - N/A   Clear
8:35 PM 46.4 °F 42.9 °F 21.2 °F 37% 29.96 in 10.0 mi SE 6.9 mph - N/A   Clear
8:55 PM 53.6 °F - 19.4 °F 26% 29.96 in 10.0 mi South 4.6 mph - N/A   Clear
9:15 PM 50.0 °F - 19.4 °F 30% 29.96 in 10.0 mi South 3.5 mph - N/A   Clear
9:35 PM 51.8 °F - 19.4 °F 28% 29.97 in 10.0 mi South 4.6 mph - N/A   Clear
9:55 PM 51.8 °F - 19.4 °F 28% 29.97 in 10.0 mi SSW 5.8 mph - N/A   Clear
10:15 PM 51.8 °F - 19.4 °F 28% 29.98 in 10.0 mi SSW 8.1 mph - N/A   Clear
10:35 PM 51.8 °F - 19.4 °F 28% 29.98 in 10.0 mi SSW 9.2 mph - N/A   Clear
10:55 PM 51.8 °F - 19.4 °F 28% 29.97 in 10.0 mi South 8.1 mph - N/A   Clear
11:15 PM 51.8 °F - 19.4 °F 28% 29.97 in 10.0 mi South 8.1 mph - N/A   Clear
11:35 PM 51.8 °F - 19.4 °F 28% 29.97 in 10.0 mi SSW 8.1 mph - N/A   Clear
11:55 PM 51.8 °F - 19.4 °F 28% 29.97 in 10.0 mi SSW 6.9 mph - N/A   Clear